Arbor Vitae, WI

10:23 AM CDT on August 16, 2017 (GMT -0500)
Lakeland-Lee Memorial

Weather History for KARV - October, 2013

Change the Weather History Date:

Monday, October 21, 2013

  Actual Average Record
Temperature  
Mean Temperature 34 °F -  
Max Temperature 36 °F 52 °F 83 °F (1947)
Min Temperature 31 °F 31 °F 12 °F (1930)
Degree Days  
Heating Degree Days 32    
Moisture  
Dew Point 29 °F    
Average Humidity 84    
Maximum Humidity 95    
Minimum Humidity 66    
Precipitation  
Precipitation 0.01 in - - ()
Sea Level Pressure  
Sea Level Pressure 29.74 in    
Wind  
Wind Speed 10 mph (West)    
Max Wind Speed 16 mph    
Max Gust Speed 25 mph    
Visibility 8 miles    
Events Snow    
Averages and records for this station are not official NWS values.
T = Trace of Precipitation, MM = Missing Value Source: NWS Daily Summary

Daily Weather History Graph

Daily Weather History Graph

Search for Another Location

Airport or City:

Trip Planner

Search our weather history database for the weather conditions in past years. The results will help you decide how hot, cold, wet, or windy it might be!

Date:

Astronomy

Oct. 21, 2013 Rise Set
Actual Time 7:24 AM CDT 6:01 PM CDT
Civil Twilight 6:53 AM CDT 6:32 PM CDT
Nautical Twilight 6:19 AM CDT 7:07 PM CDT
Astronomical Twilight 5:44 AM CDT 7:41 PM CDT
Moon 7:47 PM CDT (10/21) 10:06 AM CDT (10/21)
Length of Visible Light 11h 38m
Length of Day
10h 37m
Waning Gibbous, 92% of the Moon is Illuminated
Oct 21
Waning Gibbous
Oct 26
Last Quarter
Nov 3
New
Nov 9
First Quarter
Nov 17
Full

Hourly Weather History & Observations

Time (CDT) Temp. Windchill Dew Point Humidity Pressure Visibility Wind Dir Wind Speed Gust Speed Precip Events Conditions
12:15 AM 36.5 °F 31.8 °F 35.1 °F 95% 29.66 in 4.0 mi NW 5.8 mph - N/A   Overcast
12:35 AM 36.5 °F 32.7 °F 35.1 °F 95% 29.67 in 10.0 mi NW 4.6 mph - N/A   Overcast
12:55 AM 36.5 °F 32.7 °F 35.1 °F 95% 29.67 in 10.0 mi NW 4.6 mph - N/A   Overcast
1:15 AM 36.5 °F 31.0 °F 35.1 °F 95% 29.68 in 7.0 mi NW 6.9 mph - N/A   Overcast
1:35 AM 36.5 °F 32.7 °F 35.1 °F 95% 29.68 in 10.0 mi NW 4.6 mph - N/A   Overcast
1:55 AM 36.5 °F 31.0 °F 35.1 °F 95% 29.69 in 10.0 mi WNW 6.9 mph - N/A   Overcast
2:15 AM 36.5 °F 31.8 °F 35.1 °F 95% 29.69 in 4.0 mi WNW 5.8 mph - N/A Snow Light Snow
2:35 AM 36.5 °F 28.7 °F 35.1 °F 95% 29.70 in 10.0 mi WNW 11.5 mph 16.1 mph N/A Snow Light Snow
2:55 AM 36.5 °F 28.7 °F 34.9 °F 94% 29.70 in 10.0 mi WNW 11.5 mph 17.3 mph N/A Snow Light Snow
3:15 AM 36.5 °F 32.7 °F 34.9 °F 94% 29.70 in 7.0 mi WNW 4.6 mph - N/A Snow Light Snow
3:35 AM 36.5 °F 29.7 °F 34.7 °F 93% 29.71 in 10.0 mi WNW 9.2 mph - N/A   Overcast
3:55 AM 36.5 °F 29.2 °F 34.7 °F 93% 29.71 in 10.0 mi WNW 10.4 mph - N/A   Overcast
4:15 AM 36.5 °F 28.7 °F 34.7 °F 93% 29.72 in 3.0 mi WNW 11.5 mph 17.3 mph N/A   Overcast
4:35 AM 36.5 °F 28.2 °F 34.2 °F 91% 29.72 in 10.0 mi WNW 12.7 mph 18.4 mph N/A   Overcast
4:55 AM 36.5 °F 29.2 °F 34.2 °F 91% 29.72 in 10.0 mi WNW 10.4 mph 16.1 mph N/A   Overcast
5:15 AM 36.5 °F 29.2 °F 34.2 °F 91% 29.73 in 10.0 mi WNW 10.4 mph 19.6 mph N/A   Overcast
5:35 AM 36.5 °F 29.2 °F 34.0 °F 91% 29.73 in 10.0 mi WNW 10.4 mph 18.4 mph N/A   Overcast
5:55 AM 34.0 °F 26.0 °F 31.6 °F 91% 29.74 in 7.0 mi WNW 10.4 mph 18.4 mph N/A Snow Light Snow
6:15 AM 34.0 °F 25.5 °F 31.5 °F 90% 29.74 in 7.0 mi WNW 11.5 mph - N/A Snow Light Snow
6:35 AM 34.0 °F 25.0 °F 31.1 °F 89% 29.74 in 7.0 mi WNW 12.7 mph 16.1 mph N/A Snow Light Snow
6:55 AM 34.0 °F 26.0 °F 31.1 °F 89% 29.74 in 4.0 mi WNW 10.4 mph 18.4 mph N/A Snow Light Snow
7:15 AM 33.3 °F 25.1 °F 30.6 °F 90% 29.75 in 3.0 mi WNW 10.4 mph 17.3 mph N/A Snow Light Snow
7:35 AM 32.9 °F 23.7 °F 29.3 °F 87% 29.76 in 10.0 mi WNW 12.7 mph 18.4 mph N/A   Overcast
7:55 AM 32.9 °F 23.7 °F 28.2 °F 83% 29.76 in 10.0 mi NW 12.7 mph 19.6 mph N/A   Overcast
8:15 AM 31.8 °F 21.4 °F 25.7 °F 78% 29.77 in 10.0 mi WNW 15.0 mph 20.7 mph N/A   Overcast
8:35 AM 31.8 °F 25.4 °F 25.9 °F 79% 29.77 in 10.0 mi West 6.9 mph - N/A   Mostly Cloudy
8:55 AM 31.8 °F 24.6 °F 25.9 °F 79% 29.77 in 10.0 mi WNW 8.1 mph 19.6 mph N/A   Mostly Cloudy
9:15 AM 32.7 °F 22.5 °F 26.6 °F 78% 29.77 in 10.0 mi West 15.0 mph - N/A   Mostly Cloudy
9:35 AM 31.8 °F 23.3 °F 26.4 °F 80% 29.77 in 10.0 mi West 10.4 mph 18.4 mph N/A   Overcast
9:55 AM 31.8 °F 22.3 °F 26.1 °F 79% 29.77 in 10.0 mi West 12.7 mph 17.3 mph N/A   Overcast
10:15 AM 31.8 °F 21.4 °F 26.2 °F 80% 29.77 in 10.0 mi West 15.0 mph 20.7 mph N/A Snow Light Snow
10:35 AM 32.7 °F 23.9 °F 26.6 °F 78% 29.77 in 10.0 mi WNW 11.5 mph 18.4 mph N/A Snow Light Snow
10:55 AM 31.8 °F 21.8 °F 25.5 °F 78% 29.78 in 10.0 mi West 13.8 mph 19.6 mph N/A   Overcast
11:15 AM 31.8 °F 22.8 °F 26.1 °F 79% 29.77 in 10.0 mi West 11.5 mph 18.4 mph N/A Snow Light Snow
11:35 AM 32.0 °F 22.5 °F 25.2 °F 76% 29.78 in 10.0 mi West 12.7 mph 19.6 mph N/A   Overcast
11:55 AM 31.8 °F 21.4 °F 23.7 °F 72% 29.78 in 10.0 mi West 15.0 mph 23.0 mph N/A   Overcast
12:15 PM 32.2 °F 22.7 °F 23.9 °F 72% 29.77 in 10.0 mi West 12.7 mph 18.4 mph N/A   Overcast
12:35 PM 32.2 °F 24.4 °F 24.6 °F 74% 29.77 in 10.0 mi West 9.2 mph 16.1 mph N/A   Overcast
12:55 PM 32.0 °F 21.2 °F 23.9 °F 72% 29.77 in 10.0 mi West 16.1 mph 24.2 mph N/A   Overcast
1:15 PM 32.2 °F 22.7 °F 23.9 °F 72% 29.76 in 10.0 mi WNW 12.7 mph 18.4 mph N/A   Overcast
1:35 PM 31.8 °F 21.4 °F 22.3 °F 68% 29.76 in 10.0 mi West 15.0 mph 23.0 mph N/A   Overcast
1:55 PM 32.0 °F 21.6 °F 21.9 °F 66% 29.76 in 10.0 mi WNW 15.0 mph 25.3 mph N/A   Overcast
2:15 PM 32.0 °F 23.6 °F 22.8 °F 69% 29.76 in 10.0 mi West 10.4 mph - N/A   Overcast
2:35 PM 32.9 °F 24.1 °F 23.2 °F 67% 29.76 in 10.0 mi West 11.5 mph 23.0 mph N/A   Overcast
2:55 PM 32.9 °F 24.1 °F 23.5 °F 68% 29.75 in 10.0 mi West 11.5 mph - N/A   Overcast
3:15 PM 33.4 °F 26.6 °F 24.4 °F 70% 29.75 in 10.0 mi West 8.1 mph 18.4 mph N/A   Overcast
3:35 PM 34.0 °F 24.6 °F 24.6 °F 69% 29.74 in 10.0 mi West 13.8 mph 18.4 mph N/A   Overcast
3:55 PM 31.8 °F 22.8 °F 26.2 °F 80% 29.76 in 1.0 mi West 11.5 mph 19.6 mph N/A Snow Light Snow
4:15 PM 31.8 °F 23.3 °F 25.9 °F 79% 29.76 in 10.0 mi West 10.4 mph 16.1 mph N/A   Mostly Cloudy
4:35 PM 31.8 °F 22.3 °F 24.3 °F 74% 29.75 in 10.0 mi West 12.7 mph 16.1 mph N/A   Mostly Cloudy
4:55 PM 31.8 °F 22.3 °F 26.4 °F 80% 29.76 in 1.5 mi West 12.7 mph 19.6 mph N/A Snow Light Snow
5:15 PM 31.8 °F 23.3 °F 28.4 °F 87% 29.76 in 2.5 mi WSW 10.4 mph - N/A Snow Light Snow
5:35 PM 31.8 °F 23.9 °F 27.5 °F 84% 29.76 in 10.0 mi West 9.2 mph 18.4 mph N/A   Mostly Cloudy
5:55 PM 31.8 °F 23.3 °F 27.1 °F 83% 29.76 in 10.0 mi West 10.4 mph 18.4 mph N/A   Overcast
6:15 PM 31.8 °F 22.3 °F 27.3 °F 83% 29.76 in 10.0 mi West 12.7 mph 19.6 mph N/A   Overcast
6:35 PM 31.8 °F 22.3 °F 26.1 °F 79% 29.76 in 10.0 mi West 12.7 mph 20.7 mph N/A   Overcast
6:55 PM 31.8 °F 21.8 °F 24.8 °F 75% 29.76 in 10.0 mi West 13.8 mph 25.3 mph N/A   Mostly Cloudy
7:15 PM 31.8 °F 21.4 °F 26.1 °F 79% 29.76 in 10.0 mi West 15.0 mph 21.9 mph N/A   Mostly Cloudy
7:35 PM 31.8 °F 23.3 °F 27.1 °F 83% 29.75 in 7.0 mi WSW 10.4 mph 18.4 mph N/A Snow Light Snow
7:55 PM 31.8 °F 22.3 °F 27.5 °F 84% 29.74 in 10.0 mi West 12.7 mph 23.0 mph N/A Snow Light Snow
8:15 PM 31.8 °F 23.3 °F 27.5 °F 84% 29.74 in 4.0 mi WSW 10.4 mph 17.3 mph N/A Snow Light Snow
8:35 PM 31.8 °F 22.3 °F 27.9 °F 85% 29.73 in 4.0 mi WSW 12.7 mph 21.9 mph N/A Snow Light Snow
8:55 PM 31.8 °F 21.0 °F 28.0 °F 86% 29.73 in 4.0 mi WSW 16.1 mph 23.0 mph N/A Snow Light Snow
9:15 PM 31.8 °F 22.8 °F 28.4 °F 87% 29.72 in 4.0 mi WSW 11.5 mph 17.3 mph N/A Snow Light Snow
9:35 PM 31.8 °F 22.8 °F 28.4 °F 87% 29.72 in 3.0 mi West 11.5 mph 23.0 mph N/A Snow Light Snow
9:55 PM 31.8 °F 21.8 °F 28.4 °F 87% 29.72 in 2.5 mi West 13.8 mph 20.7 mph N/A Snow Light Snow
10:15 PM 31.8 °F 22.8 °F 28.9 °F 89% 29.72 in 3.0 mi West 11.5 mph 18.4 mph N/A Snow Light Snow
10:35 PM 31.8 °F 22.8 °F 29.1 °F 90% 29.72 in 3.0 mi West 11.5 mph 19.6 mph N/A Snow Light Snow
10:55 PM 32.4 °F 23.5 °F 30.2 °F 92% 29.72 in 2.5 mi West 11.5 mph 20.7 mph N/A Snow Light Snow
11:15 PM 32.9 °F 24.7 °F 30.6 °F 91% 29.72 in 2.0 mi West 10.4 mph 20.7 mph N/A Snow Light Snow
11:35 PM 34.0 °F 27.2 °F 32.0 °F 92% 29.72 in 3.0 mi WNW 8.1 mph 18.4 mph N/A Snow Light Snow
11:55 PM 34.0 °F 26.6 °F 31.8 °F 92% 29.73 in 2.5 mi West 9.2 mph 18.4 mph N/A Snow Light Snow